Location: �terpigny
(49.8910°N, 2.9249°E)
Time: 00:26:48
(UTC+00:00)

CUTE 1.7 + AOD 2 - Pass Details

Date: 05 July 2022
Orbit: 589 x 608 km, 97.7° (Epoch: 07 August)

Event Time Altitude Azimuth Distance (km) Brightness Sun altitude
Rises 02:48:50 0° 25° (NNE) 2,850 ? -7.5°
Reaches altitude 10° 02:51:27 10° 41° (NE) 1,939 ? -7.3°
Maximum altitude 02:54:43 22° 92° (E) 1,326 ? -6.9°
Drops below altitude 10° 02:57:58 10° 143° (SE) 1,919 ? -6.6°
Sets 03:00:31 0° 159° (SSE) 2,812 ? -6.3°
